TimeEDT,TemperatureF,Dew PointF,Humidity,Sea Level PressureIn,VisibilityMPH,Wind Direction,Wind SpeedMPH,Gust SpeedMPH,PrecipitationIn,Events,Conditions,WindDirDegrees,DateUTC
12:12 AM,53.6,53.6,100,30.00,1.0,West,3.5,-,N/A,,Mostly Cloudy,260,2013-09-21 04:12:00
12:25 AM,53.6,53.6,100,30.00,0.5,West,3.5,-,N/A,Fog,Fog,260,2013-09-21 04:25:00
12:31 AM,53.6,53.6,100,30.01,0.2,WNW,3.5,-,N/A,Fog,Fog,300,2013-09-21 04:31:00
12:51 AM,53.6,53.6,100,30.01,0.1,NNW,6.9,-,N/A,Fog,Fog,330,2013-09-21 04:51:00
12:58 AM,54.5,54.3,99,30.03,0.1,NW,4.6,-,N/A,Fog,Fog,320,2013-09-21 04:58:00
1:58 AM,55.0,54.9,99,30.02,0.1,Calm,Calm,-,N/A,Fog,Fog,0,2013-09-21 05:58:00
2:58 AM,53.2,53.1,99,30.01,0.1,South,2.3,-,N/A,Fog,Fog,170,2013-09-21 06:58:00
3:58 AM,51.4,51.1,99,30.01,0.2,SW,4.6,-,N/A,Fog,Fog,220,2013-09-21 07:58:00
4:47 AM,50.0,50.0,100,29.99,0.5,SSW,2.3,-,N/A,Fog,Fog,210,2013-09-21 08:47:00
4:58 AM,50.4,50.0,99,30.01,1.0,SW,2.3,-,N/A,,Mostly Cloudy,220,2013-09-21 08:58:00
5:24 AM,50.0,50.0,100,29.99,3.0,SSE,2.3,-,N/A,,Mostly Cloudy,160,2013-09-21 09:24:00
5:43 AM,48.2,48.2,100,29.99,2.0,SSE,1.2,-,N/A,,Mostly Cloudy,160,2013-09-21 09:43:00
5:58 AM,48.2,47.8,99,29.99,1.2,ESE,2.3,-,N/A,,Mostly Cloudy,120,2013-09-21 09:58:00
6:58 AM,49.5,49.3,99,29.99,1.2,NNE,1.2,-,N/A,,Overcast,30,2013-09-21 10:58:00
7:13 AM,50.0,50.0,100,29.98,1.2,Calm,Calm,-,N/A,,Mostly Cloudy,0,2013-09-21 11:13:00
7:28 AM,51.8,51.8,100,29.97,2.0,SE,1.2,-,N/A,,Mostly Cloudy,140,2013-09-21 11:28:00
7:58 AM,54.9,54.9,100,30.00,0.5,SSW,2.3,-,N/A,Fog,Fog,210,2013-09-21 11:58:00
8:28 AM,55.4,55.4,100,29.99,1.0,WSW,4.6,-,N/A,,Mist,240,2013-09-21 12:28:00
8:43 AM,55.4,55.4,100,29.99,1.5,WSW,3.5,-,N/A,,Overcast,240,2013-09-21 12:43:00
8:58 AM,56.3,56.3,100,30.00,1.5,SW,3.5,-,N/A,,Overcast,230,2013-09-21 12:58:00
9:18 AM,57.2,57.2,100,29.99,2.0,WSW,2.3,-,N/A,,Overcast,240,2013-09-21 13:18:00
9:45 AM,57.2,57.2,100,29.98,3.0,SW,3.5,-,N/A,,Overcast,220,2013-09-21 13:45:00
9:58 AM,59.0,59.0,100,29.98,4.0,Variable,3.5,-,N/A,,Overcast,0,2013-09-21 13:58:00
10:58 AM,62.4,62.4,100,29.96,10.0,SSW,6.9,-,N/A,,Mostly Cloudy,200,2013-09-21 14:58:00
11:58 AM,68.2,60.6,77,29.93,10.0,SSE,9.2,-,N/A,,Mostly Cloudy,160,2013-09-21 15:58:00
12:58 PM,67.8,60.3,77,29.90,10.0,SE,10.4,-,N/A,,Mostly Cloudy,130,2013-09-21 16:58:00
1:58 PM,70.9,60.4,69,29.88,10.0,SSE,11.5,-,N/A,,Mostly Cloudy,150,2013-09-21 17:58:00
2:58 PM,70.3,59.7,69,29.85,10.0,SSE,13.8,-,N/A,,Mostly Cloudy,150,2013-09-21 18:58:00
3:58 PM,72.7,61.3,67,29.83,10.0,SE,11.5,-,N/A,,Mostly Cloudy,140,2013-09-21 19:58:00
4:58 PM,72.1,60.8,67,29.81,10.0,SSE,13.8,-,N/A,,Mostly Cloudy,160,2013-09-21 20:58:00
5:58 PM,69.1,59.5,72,29.80,10.0,SSE,13.8,-,N/A,,Mostly Cloudy,150,2013-09-21 21:58:00
6:58 PM,65.7,59.0,79,29.80,10.0,SSE,8.1,-,N/A,,Mostly Cloudy,150,2013-09-21 22:58:00
7:58 PM,64.4,59.9,85,29.81,10.0,SE,9.2,-,N/A,,Mostly Cloudy,140,2013-09-21 23:58:00
8:58 PM,64.9,61.3,88,29.80,10.0,SSE,10.4,-,N/A,,Mostly Cloudy,150,2013-09-22 00:58:00
9:58 PM,65.1,62.8,92,29.77,10.0,SSE,10.4,-,N/A,,Mostly Cloudy,150,2013-09-22 01:58:00
10:58 PM,64.2,62.8,95,29.76,10.0,SSE,11.5,-,N/A,,Mostly Cloudy,150,2013-09-22 02:58:00
11:58 PM,63.9,62.8,96,29.74,10.0,SE,8.1,-,N/A,,Overcast,140,2013-09-22 03:58:00